Location: UFOWorks Observatory
(42.1050°N, 72.2350°W)
Time: 19:51:50
(UTC-05:00)

ISS - Visible Passes

Search period start: 22 December 2014 00:00
Search period end: 01 January 2015 00:00
Orbit: 404 x 414 km, 51.6° (Epoch: 22 December)

Date Brightness Start Highest point End Pass type
(mag) Time Alt. Az. Time Alt. Az. Time Alt. Az.
22 Dec -1.6 17:04:58 10° NW 17:07:28 20° NNE 17:09:31 12° ENE visible
22 Dec -0.9 18:41:12 10° NW 18:42:17 19° NW 18:42:17 19° NW visible
23 Dec -3.0 17:50:25 10° NW 17:53:35 43° NNE 17:53:54 42° NE visible
24 Dec -2.3 16:59:39 10° NW 17:02:35 29° NNE 17:05:31 10° E visible
24 Dec -1.7 18:36:07 10° WNW 18:38:28 36° W 18:38:28 36° W visible
25 Dec -3.3 17:45:06 10° WNW 17:48:23 83° SW 17:50:30 20° SE visible
26 Dec -3.2 16:54:10 10° NW 16:57:25 56° NNE 17:00:38 10° ESE visible
26 Dec -0.5 18:31:24 10° W 18:33:42 18° SW 18:35:43 11° S visible
27 Dec -1.4 17:39:53 10° WNW 17:42:51 32° SW 17:45:48 10° SSE visible
29 Dec 0.0 17:35:21 10° W 17:36:59 13° SW 17:38:36 10° SSW visible
